EW1719 Weather Reports


time (UTC)temp
F
wind
direction
speed
knots
gust
knots
rain 1hr
in
rain 24hr
in
rain mn
in
humidity
%
barometer
mb
20260504110428 43 317 0.9 1.7 0.00 0.00 0.00 90 1018.5
20260504100107 44 317 0.0 0.9 0.00 0.00 0.00 90 1018.3
20260504081515 44 315 0.0 1.7 0.00 0.00 0.00 89 1017.9
20260504081307 44 315 0.0 1.7 0.00 0.00 0.00 89 1017.8
20260504080407 44 0 0.0 0.0 0.00 0.00 0.00 88 1017.7
20260504070107 46 315 0.9 1.7 0.00 0.00 0.00 88 1018.1
20260504050428 48 316 0.0 1.7 0.00 0.00 0.00 86 1018.6
20260504050004 48 316 0.0 0.9 0.00 0.00 0.00 86 1018.6
20260504045528 48 316 0.0 0.9 0.00 0.00 0.00 86 1018.5
20260504044607 48 316 0.0 0.9 0.00 0.00 0.00 86 1018.5
20260504044508 48 316 0.0 0.9 0.00 0.00 0.00 86 1018.5
20260504043707 49 315 0.0 1.7 0.00 0.00 0.00 85 1018.7
20260504043013 48 315 0.0 1.7 0.00 0.00 0.00 85 1018.7
20260504042807 49 315 0.9 1.7 0.00 0.00 0.00 84 1018.7
20260504041907 48 314 0.0 0.9 0.00 0.00 0.00 83 1018.6
20260504041605 48 314 0.0 0.9 0.00 0.00 0.00 82 1018.7
20260504041007 49 314 0.0 0.9 0.00 0.00 0.00 83 1018.7
20260504040129 49 0 0.0 0.0 0.00 0.00 0.00 82 1018.8
20260504040007 49 313 0.0 0.0 0.00 0.00 0.00 82 1018.7
20260504035207 50 0 0.0 0.0 0.00 0.00 0.00 82 1018.8
20260504034510 49 313 0.0 0.9 0.00 0.00 0.00 81 1018.9
20260504034308 50 313 0.0 0.9 0.00 0.00 0.00 81 1018.7
20260504033407 50 0 0.0 0.0 0.00 0.00 0.00 79 1018.8
20260504033015 49 313 0.0 0.9 0.00 0.00 0.00 79 1018.8
20260504032508 50 314 0.9 1.7 0.00 0.00 0.00 79 1018.8
20260504031608 51 314 0.0 1.7 0.00 0.00 0.00 79 1018.7
20260504031506 50 314 0.0 1.7 0.00 0.00 0.00 79 1018.7
20260504030708 51 314 0.0 1.7 0.00 0.00 0.00 79 1018.7
20260504030012 51 314 0.0 1.7 0.00 0.00 0.00 78 1018.7
20260504025808 52 314 0.0 1.7 0.00 0.00 0.00 79 1018.6
20260504024929 52 313 0.0 0.9 0.00 0.00 0.00 77 1018.6
20260504024517 51 313 0.0 0.9 0.00 0.00 0.00 78 1018.6
20260504024008 52 313 0.0 1.7 0.00 0.00 0.00 76 1018.6
20260504023108 53 314 0.9 1.7 0.00 0.00 0.00 76 1018.7
20260504023004 52 313 0.0 1.7 0.00 0.00 0.00 75 1018.7
20260504022208 53 314 0.0 0.9 0.00 0.00 0.00 75 1018.5
20260504021509 53 314 0.0 0.9 0.00 0.00 0.00 74 1018.5
20260504021329 54 314 0.0 0.9 0.00 0.00 0.00 74 1018.5
20260504020408 54 314 0.0 1.7 0.00 0.00 0.00 75 1018.4
20260504020017 54 314 0.0 1.7 0.00 0.00 0.00 74 1018.5
20260504015508 55 311 0.0 1.7 0.00 0.00 0.00 74 1018.4
20260504014629 56 279 0.0 1.7 0.00 0.00 0.00 73 1018.4
20260504014504 55 306 0.0 1.7 0.00 0.00 0.00 74 1018.4
20260504013708 56 313 0.0 0.9 0.00 0.00 0.00 69 1018.2
20260504013007 56 313 0.0 0.9 0.00 0.00 0.00 67 1018.2
20260504012808 56 313 0.0 0.9 0.00 0.00 0.00 67 1018.2
20260504011908 57 313 0.0 1.7 0.00 0.00 0.00 70 1018.1
20260504011510 57 313 0.0 1.7 0.00 0.00 0.00 66 1018.0
20260504011029 58 313 0.9 1.7 0.00 0.00 0.00 67 1018.0
20260504010108 58 313 0.9 1.7 0.00 0.00 0.00 65 1018.0
20260504010015 58 313 0.0 1.7 0.00 0.00 0.00 65 1018.0
20260504005208 59 313 0.9 0.9 0.00 0.00 0.00 65 1017.9
20260504004508 59 313 0.0 1.7 0.00 0.00 0.00 61 1017.8
20260504004308 60 300 0.9 1.7 0.00 0.00 0.00 59 1017.7
20260504003408 61 310 0.9 1.7 0.00 0.00 0.00 59 1017.7
20260504003010 61 311 0.0 1.7 0.00 0.00 0.00 59 1017.7
20260504002508 62 312 0.9 1.7 0.00 0.00 0.00 57 1017.5
20260504001608 64 310 0.9 1.7 0.00 0.00 0.00 57 1017.7
20260504001516 64 313 0.9 1.7 0.00 0.00 0.00 58 1017.6
20260504000708 65 313 0.9 1.7 0.00 0.00 0.00 57 1017.7
20260504000015 65 313 0.0 2.6 0.00 0.00 0.00 55 1017.6
20260503235808 66 296 0.9 2.6 0.00 0.00 0.00 53 1017.5
20260503234929 66 259 0.9 2.6 0.00 0.00 0.00 51 1017.6
20260503234509 66 273 0.0 4.3 0.00 0.00 0.00 48 1017.5
20260503234008 67 255 1.7 5.2 0.00 0.00 0.00 46 1017.6
20260503233108 68 246 1.7 4.3 0.00 0.00 0.00 48 1017.5
20260503233013 67 15 0.9 4.3 0.00 0.00 0.00 48 1017.5
20260503232208 68 259 1.7 4.3 0.00 0.00 0.00 46 1017.5
20260503231502 68 260 1.7 3.5 0.00 0.00 0.00 46 1017.4
20260503231308 69 258 1.7 3.5 0.00 0.00 0.00 46 1017.5
20260503230408 70 256 1.7 3.5 0.00 0.00 0.00 42 1017.4
20260503230008 69 232 0.9 3.5 0.00 0.00 0.00 44 1017.4
20260503225529 70 263 1.7 3.5 0.00 0.00 0.00 43 1017.5
20260503224608 71 216 2.6 6.1 0.00 0.00 0.00 41 1017.6
20260503224510 70 267 2.6 6.1 0.00 0.00 0.00 40 1017.6
20260503223708 71 239 1.7 5.2 0.00 0.00 0.00 39 1017.5
20260503223016 71 232 0.9 4.3 0.00 0.00 0.00 45 1017.5
20260503222808 71 271 1.7 3.5 0.00 0.00 0.00 44 1017.5
20260503221908 71 208 1.7 4.3 0.00 0.00 0.00 41 1017.6
20260503221506 70 202 0.9 4.3 0.00 0.00 0.00 39 1017.6
20260503221008 71 236 1.7 3.5 0.00 0.00 0.00 42 1017.6
20260503220108 71 220 2.6 7.8 0.00 0.00 0.00 42 1017.7
20260503220011 70 262 3.5 7.0 0.00 0.00 0.00 44 1017.7
20260503215208 71 295 0.9 3.5 0.00 0.00 0.00 42 1017.7
20260503214506 70 292 0.9 4.3 0.00 0.00 0.00 41 1017.7
20260503214308 70 302 1.7 4.3 0.00 0.00 0.00 44 1017.7
20260503213408 70 295 1.7 7.0 0.00 0.00 0.00 44 1017.8
20260503213010 70 229 0.9 7.0 0.00 0.00 0.00 41 1017.9
20260503212508 70 349 1.7 7.0 0.00 0.00 0.00 41 1017.8
20260503211608 70 340 0.9 3.5 0.00 0.00 0.00 41 1017.9
20260503211516 70 5 0.9 3.5 0.00 0.00 0.00 43 1017.9
20260503210708 70 360 1.7 3.5 0.00 0.00 0.00 44 1018.0
20260503210018 70 302 1.7 7.0 0.00 0.00 0.00 49 1018.1
20260503205829 70 300 1.7 7.0 0.00 0.00 0.00 46 1018.0
20260503204929 70 303 1.7 4.3 0.00 0.00 0.00 44 1018.2
20260503204506 69 246 0.9 3.5 0.00 0.00 0.00 49 1018.5
20260503204008 69 332 1.7 4.3 0.00 0.00 0.00 47 1018.4
20260503203108 69 252 2.6 7.8 0.00 0.00 0.00 44 1018.6
20260503203019 69 229 1.7 7.8 0.00 0.00 0.00 44 1018.6
20260503202208 70 255 2.6 6.1 0.00 0.00 0.00 48 1018.7
20260503201516 68 274 1.7 5.2 0.00 0.00 0.00 46 1018.8
20260503201308 69 272 2.6 7.0 0.00 0.00 0.00 43 1018.8
20260503200408 69 261 1.7 5.2 0.00 0.00 0.00 47 1019.0
20260503200104 68 319 0.9 5.2 0.00 0.00 0.00 44 1019.0
20260503195508 68 265 2.6 7.0 0.00 0.00 0.00 44 1019.1
20260503194608 68 256 2.6 10.4 0.00 0.00 0.00 45 1019.3
20260503194508 68 275 2.6 10.4 0.00 0.00 0.00 44 1019.3
20260503193708 68 11 1.7 7.0 0.00 0.00 0.00 44 1019.7
20260503193010 67 348 2.6 7.0 0.00 0.00 0.00 45 1019.9
20260503192808 67 355 2.6 6.1 0.00 0.00 0.00 44 1019.7
20260503191908 67 339 2.6 5.2 0.00 0.00 0.00 42 1020.0
20260503191514 67 9 1.7 4.3 0.00 0.00 0.00 43 1020.0
20260503191008 67 343 2.6 6.1 0.00 0.00 0.00 44 1020.1
20260503190108 67 270 2.6 7.0 0.00 0.00 0.00 46 1020.2
20260503190103 66 229 3.5 7.0 0.00 0.00 0.00 46 1020.3
20260503185208 66 9 2.6 7.0 0.00 0.00 0.00 46 1020.2
20260503184508 66 321 1.7 7.0 0.00 0.00 0.00 48 1020.4
20260503184329 66 311 2.6 7.0 0.00 0.00 0.00 47 1020.4
20260503183409 66 2 1.7 7.0 0.00 0.00 0.00 48 1020.6
20260503183010 66 36 1.7 4.3 0.00 0.00 0.00 49 1020.6
20260503182509 65 235 1.7 5.2 0.00 0.00 0.00 49 1020.7
20260503181608 65 299 1.7 4.3 0.00 0.00 0.00 50 1020.8
20260503181516 65 347 0.9 4.3 0.00 0.00 0.00 49 1020.9
20260503180730 65 269 1.7 6.1 0.00 0.00 0.00 50 1020.8
20260503180023 65 319 0.9 3.5 0.00 0.00 0.00 51 1021.0
20260503175808 65 281 1.7 6.1 0.00 0.00 0.00 51 1020.9
20260503174908 65 354 2.6 6.1 0.00 0.00 0.00 52 1021.0
20260503174518 64 9 1.7 7.0 0.00 0.00 0.00 54 1020.9
20260503174029 64 279 2.6 7.0 0.00 0.00 0.00 49 1020.9
20260503173108 64 65 1.7 4.3 0.00 0.00 0.00 55 1021.0
20260503173015 63 77 0.9 4.3 0.00 0.00 0.00 50 1021.0
20260503172229 63 283 1.7 5.2 0.00 0.00 0.00 49 1021.0
20260503171509 63 282 2.6 7.0 0.00 0.00 0.00 48 1021.2
20260503171308 63 231 1.7 7.0 0.00 0.00 0.00 49 1021.2
20260503170408 62 315 1.7 7.8 0.00 0.00 0.00 50 1021.2
20260503160108 60 93 2.6 6.1 0.00 0.00 0.00 57 1022.1
20260503150709 58 243 1.7 6.1 0.00 0.00 0.00 63 1022.4
20260503140103 55 99 0.9 3.5 0.00 0.00 0.00 68 1022.2
20260503131009 52 77 0.9 2.6 0.00 0.00 0.00 75 1021.7
20260503130109 52 114 0.9 2.6 0.00 0.00 0.00 77 1021.7